Weather History for KUIN - November, 2012

Change the Weather History Date:

Sunday, November 4, 2012

  Actual Average Record
Temperature  
Mean Temperature 38 °F 48 °F  
Max Temperature 46 °F 58 °F 79 °F (1914)
Min Temperature 30 °F 39 °F 11 °F (1991)
Degree Days  
Heating Degree Days 27 17  
Month to date heating degree days 89 66  
Since 1 July heating degree days 565 490  
Cooling Degree Days 0 0  
Month to date cooling degree days 0 0  
Year to date cooling degree days 1573 1093  
Moisture  
Dew Point 33 °F    
Average Humidity 76    
Maximum Humidity 92    
Minimum Humidity 60    
Precipitation  
Precipitation T in 0.10 in 2.11 in (1981)
Month to date precipitation 0.07 0.40  
Year to date precipitation 23.29 32.46  
Sea Level Pressure  
Sea Level Pressure 30.22 in    
Wind  
Wind Speed 4 mph (SE)    
Max Wind Speed 10 mph    
Max Gust Speed 13 mph    
Visibility 9 miles    
Events Rain    
T = Trace of Precipitation, MM = Missing Value Source: NWS Daily Summary

Daily Weather History Graph

Daily Weather History Graph

Search for Another Location

Airport or City:

Trip Planner

Search our weather history database for the weather conditions in past years. The results will help you decide how hot, cold, wet, or windy it might be!

Date:

Astronomy

Nov. 04, 2012 Rise Set
Actual Time 6:37 AM CST 4:58 PM CST
Civil Twilight 6:09 AM CST 5:26 PM CST
Nautical Twilight 5:37 AM CST 5:58 PM CST
Astronomical Twilight 5:05 AM CST 6:30 PM CST
Moon 9:36 PM CST (11/4) 11:21 AM CST (11/4)
Length of Visible Light 11h 17m
Length of Day
10h 20m
Waning Gibbous, 72% of the Moon is Illuminated
Nov 4
Waning Gibbous
Nov 6
Last Quarter
Nov 13
New
Nov 20
First Quarter
Nov 28
Full

Hourly Weather History & Observations

Time (CST) Temp. Windchill Dew Point Humidity Pressure Visibility Wind Dir Wind Speed Gust Speed Precip Events Conditions
12:54 AM 34.0 °F - 30.9 °F 89% 30.23 in 10.0 mi Calm Calm - N/A   Clear
1:54 AM 35.1 °F 32.2 °F 30.9 °F 85% 30.22 in 10.0 mi SSE 3.5 mph - N/A   Clear
1:54 AM 30.9 °F 27.5 °F 28.9 °F 92% 30.24 in 9.0 mi WNW 3.5 mph - N/A   Clear
2:54 AM 30.9 °F - 28.0 °F 89% 30.24 in 9.0 mi Calm Calm - N/A   Clear
3:54 AM 32.0 °F - 30.0 °F 92% 30.23 in 9.0 mi Calm Calm - N/A   Clear
4:54 AM 33.1 °F - 30.0 °F 89% 30.24 in 10.0 mi Calm Calm - N/A   Clear
5:54 AM 32.0 °F - 28.0 °F 85% 30.24 in 9.0 mi Calm Calm - N/A   Clear
6:54 AM 32.0 °F - 28.9 °F 88% 30.27 in 7.0 mi Calm Calm - N/A   Clear
7:54 AM 36.0 °F - 32.0 °F 86% 30.28 in 10.0 mi Calm Calm - N/A   Mostly Cloudy
8:54 AM 37.9 °F - 34.0 °F 86% 30.27 in 10.0 mi Calm Calm - N/A   Scattered Clouds
9:54 AM 39.9 °F 37.8 °F 33.1 °F 77% 30.27 in 10.0 mi South 3.5 mph - N/A   Clear
10:54 AM 42.1 °F - 35.1 °F 76% 30.27 in 10.0 mi Calm Calm - N/A   Partly Cloudy
11:54 AM 45.0 °F 43.5 °F 34.0 °F 65% 30.25 in 10.0 mi South 3.5 mph - N/A   Overcast
12:54 PM 45.0 °F 42.6 °F 35.1 °F 68% 30.23 in 10.0 mi South 4.6 mph - N/A   Overcast
1:54 PM 45.0 °F 43.5 °F 35.1 °F 68% 30.21 in 10.0 mi South 3.5 mph - N/A   Mostly Cloudy
2:54 PM 46.0 °F 43.9 °F 35.1 °F 66% 30.20 in 9.0 mi SSE 4.6 mph - N/A   Overcast
3:54 PM 46.0 °F 43.9 °F 34.0 °F 63% 30.19 in 9.0 mi SE 4.6 mph - N/A   Overcast
4:54 PM 45.0 °F 41.8 °F 35.1 °F 68% 30.18 in 8.0 mi ESE 5.8 mph - N/A   Overcast
5:54 PM 43.0 °F 38.8 °F 36.0 °F 76% 30.17 in 9.0 mi ESE 6.9 mph - 0.00 in Rain Light Rain
6:54 PM 41.0 °F 37.1 °F 35.1 °F 79% 30.18 in 8.0 mi ESE 5.8 mph - 0.00 in   Partly Cloudy
7:54 PM 41.0 °F 36.4 °F 35.1 °F 79% 30.17 in 8.0 mi East 6.9 mph - N/A   Overcast
8:54 PM 42.1 °F 37.7 °F 35.1 °F 76% 30.17 in 8.0 mi ESE 6.9 mph - N/A   Overcast
9:54 PM 42.1 °F 37.7 °F 36.0 °F 79% 30.17 in 7.0 mi ESE 6.9 mph - 0.00 in Rain Light Rain
10:54 PM 41.0 °F 36.4 °F 36.0 °F 82% 30.17 in 8.0 mi SE 6.9 mph - 0.00 in Rain Light Rain